Weather History for KRPD - March, 2014

Change the Weather History Date:

Saturday, March 29, 2014

  Actual Average Record
Temperature  
Mean Temperature 28 °F -  
Max Temperature 40 °F 43 °F 66 °F (2005)
Min Temperature 15 °F 26 °F 6 °F (2011)
Degree Days  
Heating Degree Days 38    
Moisture  
Dew Point 19 °F    
Average Humidity 67    
Maximum Humidity 91    
Minimum Humidity 44    
Precipitation  
Precipitation 0.00 in - - ()
Sea Level Pressure  
Sea Level Pressure 30.22 in    
Wind  
Wind Speed 2 mph (SE)    
Max Wind Speed 10 mph    
Max Gust Speed -    
Visibility 10 miles    
Events      
Averages and records for this station are not official NWS values.
T = Trace of Precipitation, MM = Missing Value Source: NWS Daily Summary

Daily Weather History Graph

Daily Weather History Graph

Search for Another Location

Airport or City:

Trip Planner

Search our weather history database for the weather conditions in past years. The results will help you decide how hot, cold, wet, or windy it might be!

Date:

Astronomy

Mar. 29, 2014 Rise Set
Actual Time 6:53 AM CDT 7:31 PM CDT
Civil Twilight 6:23 AM CDT 8:01 PM CDT
Nautical Twilight 5:48 AM CDT 8:36 PM CDT
Astronomical Twilight 5:11 AM CDT 9:13 PM CDT
Moon 6:05 AM CDT (3/29) 6:35 PM CDT (3/29)
Length of Visible Light 13h 37m
Length of Day
12h 38m
Waning Crescent, 2% of the Moon is Illuminated
Mar 29
Waning Crescent
Mar 30
New
Apr 7
First Quarter
Apr 15
Full
Apr 22
Last Quarter

Hourly Weather History & Observations

Time (CDT) Temp. Windchill Dew Point Humidity Pressure Visibility Wind Dir Wind Speed Gust Speed Precip Events Conditions
12:15 AM 26.6 °F - 16.7 °F 66% 30.23 in 10.0 mi Calm Calm - N/A   Mostly Cloudy
12:35 AM 26.6 °F - 16.7 °F 66% 30.23 in 10.0 mi Calm Calm - N/A   Mostly Cloudy
12:55 AM 26.6 °F - 16.5 °F 66% 30.23 in 10.0 mi Calm Calm - N/A   Scattered Clouds
1:15 AM 24.3 °F - 16.7 °F 73% 30.24 in 10.0 mi Calm Calm - N/A   Clear
1:35 AM 23.5 °F - 16.3 °F 74% 30.23 in 10.0 mi Calm Calm - N/A   Clear
1:55 AM 22.6 °F - 16.5 °F 77% 30.23 in 10.0 mi Calm Calm - N/A   Clear
2:15 AM 21.9 °F - 17.6 °F 83% 30.23 in 10.0 mi Calm Calm - N/A   Clear
2:35 AM 19.9 °F - 16.3 °F 86% 30.24 in 10.0 mi Calm Calm - N/A   Clear
2:55 AM 20.7 °F - 17.2 °F 87% 30.24 in 10.0 mi Calm Calm - N/A   Clear
3:15 AM 19.0 °F - 15.1 °F 85% 30.25 in 10.0 mi Calm Calm - N/A   Clear
3:35 AM 19.2 °F - 16.2 °F 88% 30.25 in 10.0 mi Calm Calm - N/A   Clear
3:55 AM 18.7 °F - 15.8 °F 89% 30.25 in 10.0 mi Calm Calm - N/A   Clear
4:15 AM 17.1 °F - 13.8 °F 87% 30.26 in 10.0 mi Calm Calm - N/A   Scattered Clouds
4:35 AM 18.0 °F - 15.4 °F 90% 30.25 in 10.0 mi Calm Calm - N/A   Scattered Clouds
4:55 AM 15.8 °F - 13.6 °F 91% 30.26 in 10.0 mi Calm Calm - N/A   Clear
5:15 AM 16.5 °F - 13.6 °F 88% 30.27 in 10.0 mi Calm Calm - N/A   Clear
5:35 AM 15.8 °F - 13.1 °F 89% 30.27 in 10.0 mi Calm Calm - N/A   Mostly Cloudy
5:55 AM 16.7 °F - 13.6 °F 88% 30.28 in 10.0 mi Calm Calm - N/A   Overcast
6:15 AM 17.4 °F - 13.8 °F 86% 30.27 in 10.0 mi Calm Calm - N/A   Overcast
6:35 AM 17.4 °F - 14.0 °F 86% 30.27 in 10.0 mi Calm Calm - N/A   Overcast
6:55 AM 18.0 °F 12.7 °F 14.5 °F 86% 30.27 in 10.0 mi North 3.5 mph - N/A   Mostly Cloudy
7:15 AM 18.5 °F 13.3 °F 14.9 °F 86% 30.28 in 10.0 mi North 3.5 mph - N/A   Scattered Clouds
7:35 AM 18.5 °F - 14.9 °F 86% 30.28 in 10.0 mi Calm Calm - N/A   Clear
7:55 AM 18.5 °F - 14.9 °F 86% 30.28 in 10.0 mi Calm Calm - N/A   Clear
8:15 AM 20.3 °F - 15.1 °F 80% 30.28 in 10.0 mi Calm Calm - N/A   Clear
8:35 AM 20.1 °F 15.2 °F 15.1 °F 81% 30.28 in 10.0 mi North 3.5 mph - N/A   Clear
8:55 AM 22.1 °F 15.9 °F 14.9 °F 74% 30.28 in 10.0 mi North 4.6 mph - N/A   Clear
9:15 AM 24.3 °F 18.4 °F 16.0 °F 71% 30.28 in 10.0 mi North 4.6 mph - N/A   Clear
9:35 AM 26.6 °F 22.6 °F 15.8 °F 64% 30.28 in 10.0 mi North 3.5 mph - N/A   Clear
9:55 AM 28.0 °F - 16.7 °F 62% 30.28 in 10.0 mi Calm Calm - N/A   Clear
10:15 AM 29.7 °F - 16.5 °F 58% 30.28 in 10.0 mi Calm Calm - N/A   Clear
10:35 AM 30.9 °F - 16.5 °F 55% 30.28 in 10.0 mi Calm Calm - N/A   Clear
10:55 AM 31.6 °F - 16.7 °F 54% 30.28 in 10.0 mi Calm Calm - N/A   Clear
11:15 AM 32.7 °F - 18.1 °F 55% 30.28 in 10.0 mi Calm Calm - N/A   Clear
11:35 AM 33.8 °F - 18.9 °F 54% 30.28 in 10.0 mi Calm Calm - N/A   Clear
11:55 AM 34.7 °F 31.8 °F 19.4 °F 54% 30.27 in 10.0 mi SE 3.5 mph - N/A   Clear
12:15 PM 35.6 °F 32.8 °F 19.8 °F 53% 30.26 in 10.0 mi SW 3.5 mph - N/A   Clear
12:35 PM 36.0 °F - 19.2 °F 51% 30.26 in 10.0 mi Calm Calm - N/A   Clear
12:55 PM 36.5 °F - 19.8 °F 51% 30.26 in 10.0 mi Calm Calm - N/A   Clear
1:15 PM 37.0 °F 33.3 °F 19.6 °F 49% 30.25 in 10.0 mi SSW 4.6 mph - N/A   Clear
1:35 PM 37.4 °F - 19.0 °F 48% 30.25 in 10.0 mi Calm Calm - N/A   Clear
1:55 PM 37.8 °F - 19.0 °F 47% 30.24 in 10.0 mi Calm Calm - N/A   Clear
2:15 PM 37.8 °F - 19.8 °F 48% 30.23 in 10.0 mi Calm Calm - N/A   Clear
2:35 PM 38.7 °F 35.2 °F 19.9 °F 47% 30.23 in 10.0 mi WSW 4.6 mph - N/A   Clear
2:55 PM 38.7 °F 36.3 °F 20.8 °F 49% 30.21 in 10.0 mi SW 3.5 mph - N/A   Clear
3:15 PM 39.0 °F 35.7 °F 21.0 °F 49% 30.21 in 10.0 mi SSE 4.6 mph - N/A   Clear
3:35 PM 39.2 °F 34.2 °F 20.7 °F 47% 30.20 in 10.0 mi SE 6.9 mph - N/A   Clear
3:55 PM 39.6 °F 34.7 °F 20.7 °F 47% 30.20 in 10.0 mi South 6.9 mph - N/A   Clear
4:15 PM 39.9 °F 35.1 °F 21.9 °F 49% 30.20 in 10.0 mi South 6.9 mph - N/A   Clear
4:35 PM 39.9 °F 35.8 °F 22.3 °F 49% 30.20 in 10.0 mi South 5.8 mph - N/A   Clear
4:55 PM 40.1 °F 35.3 °F 22.1 °F 49% 30.19 in 10.0 mi South 6.9 mph - N/A   Clear
5:15 PM 39.7 °F 35.6 °F 22.1 °F 49% 30.18 in 10.0 mi South 5.8 mph - N/A   Clear
5:35 PM 39.9 °F 35.1 °F 21.4 °F 48% 30.18 in 10.0 mi South 6.9 mph - N/A   Clear
5:55 PM 40.3 °F 36.3 °F 19.9 °F 44% 30.18 in 10.0 mi South 5.8 mph - N/A   Clear
6:15 PM 39.4 °F 33.8 °F 22.1 °F 50% 30.17 in 10.0 mi SSE 8.1 mph - N/A   Clear
6:35 PM 39.2 °F 32.5 °F 22.6 °F 52% 30.16 in 10.0 mi SE 10.4 mph - N/A   Clear
6:55 PM 38.3 °F 32.5 °F 23.0 °F 54% 30.16 in 10.0 mi SE 8.1 mph - N/A   Clear
7:15 PM 37.4 °F 32.1 °F 22.8 °F 56% 30.16 in 10.0 mi SE 6.9 mph - N/A   Clear
7:35 PM 36.5 °F 31.0 °F 23.5 °F 59% 30.16 in 10.0 mi SE 6.9 mph - N/A   Clear
7:55 PM 35.6 °F 30.7 °F 23.5 °F 62% 30.16 in 10.0 mi SE 5.8 mph - N/A   Clear
8:15 PM 34.3 °F 29.2 °F 23.4 °F 64% 30.15 in 10.0 mi SE 5.8 mph - N/A   Clear
8:35 PM 34.2 °F 30.0 °F 23.4 °F 65% 30.16 in 10.0 mi SE 4.6 mph - N/A   Clear
8:55 PM 34.2 °F 29.0 °F 23.0 °F 64% 30.15 in 10.0 mi ESE 5.8 mph - N/A   Clear
9:15 PM 34.2 °F 29.0 °F 23.7 °F 66% 30.15 in 10.0 mi SE 5.8 mph - N/A   Clear
9:35 PM 32.7 °F 26.4 °F 23.7 °F 69% 30.14 in 10.0 mi SE 6.9 mph - N/A   Clear
9:55 PM 32.9 °F 27.5 °F 24.3 °F 71% 30.13 in 10.0 mi SE 5.8 mph - N/A   Clear
10:15 PM 34.0 °F 26.0 °F 24.3 °F 68% 30.13 in 10.0 mi SE 10.4 mph - N/A   Clear
10:35 PM 33.3 °F 26.4 °F 24.6 °F 71% 30.13 in 10.0 mi SE 8.1 mph - N/A   Clear
10:55 PM 32.7 °F 25.7 °F 24.8 °F 73% 30.13 in 10.0 mi ESE 8.1 mph - N/A   Clear
11:15 PM 32.0 °F 25.6 °F 24.4 °F 74% 30.13 in 10.0 mi ESE 6.9 mph - N/A   Clear
11:35 PM 31.8 °F 26.2 °F 24.4 °F 74% 30.13 in 10.0 mi SE 5.8 mph - N/A   Clear
11:55 PM 30.7 °F 26.0 °F 24.1 °F 76% 30.13 in 10.0 mi ESE 4.6 mph - N/A   Clear